User: anonymous   Login
Location: Unnamed Road
(35.9029°N, 51.9749°E)
Time: 11:24:00
(UTC+04:30)
Language:

Transit 2A - Orbit

View from above orbital plane
View from above orbital plane
View from above satellite
View from above satellite

Ground track
Ground track

The orbit data is extracted from the following two-line orbital elements,

1    45U 60007A   20146.28532682 -.00000057 +00000-0 +12873-4 0  9999
2    45 066.6948 081.9823 0259383 331.0350 027.6557 14.33676945119388
Epoch (UTC): 25 May 2020 06:50:52
Eccentricity: 0.0259383
inclination: 66.6948°
perigee height: 594 km
apogee height: 965 km
right ascension of ascending node: 81.9823°
argument of perigee: 331.0350°
revolutions per day: 14.33676945
mean anomaly at epoch: 27.6557°
orbit number at epoch: 11938

The dashed part of the orbit path shows where the satellite is in the earth's shadow,  

DLR